CASTLE10 EGKB-ZZZZ

Flight info

Callsign CASTLE10
Flight time N/A
Altitude 1300
Route
Aircraft A139/L-SGY/LB2

Departure

Time 2026-04-22 19:11
Airport London Biggin Hill Airport (EGKB)

Arrival

Time N/A
Airport ZZZZ
Time Latitude Longitude Altitude Speed Heading
2026-04-22 19:03 51.32052 0.03573 645 ft 0 kts 317°
2026-04-22 19:07 51.32058 0.03567 645 ft 3 kts 341°
2026-04-22 19:07 51.32092 0.03551 644 ft 7 kts 340°
2026-04-22 19:07 51.32138 0.03486 642 ft 11 kts 313°
2026-04-22 19:07 51.32194 0.03391 639 ft 10 kts 309°
2026-04-22 19:08 51.32218 0.03325 638 ft 6 kts 293°
2026-04-22 19:08 51.32264 0.03267 636 ft 12 kts 302°
2026-04-22 19:08 51.32296 0.03104 634 ft 14 kts 279°
2026-04-22 19:08 51.32307 0.03049 632 ft 2 kts 83°
2026-04-22 19:09 51.32307 0.03051 632 ft 0 kts 71°
2026-04-22 19:10 51.32308 0.03052 635 ft 2 kts 64°
2026-04-22 19:10 51.32340 0.03136 800 ft 31 kts 77°
2026-04-22 19:11 51.32731 0.03348 983 ft 98 kts 17°
2026-04-22 19:11 51.33338 0.02928 1319 ft 122 kts 323°
2026-04-22 19:11 51.33631 0.01530 1542 ft 126 kts 264°
2026-04-22 19:11 51.33446 0.00180 1577 ft 123 kts 255°
2026-04-22 19:12 51.33312 -0.01151 1528 ft 125 kts 259°
2026-04-22 19:12 51.33238 -0.02567 1504 ft 132 kts 265°
2026-04-22 19:12 51.33197 -0.04060 1471 ft 141 kts 265°
2026-04-22 19:12 51.33163 -0.05624 1593 ft 145 kts 265°
2026-04-22 19:13 51.33114 -0.07244 1822 ft 148 kts 265°
2026-04-22 19:13 51.33089 -0.08861 1988 ft 148 kts 266°
2026-04-22 19:13 51.33014 -0.10265 1982 ft 147 kts 263°
2026-04-22 19:13 51.32899 -0.12028 1946 ft 147 kts 263°
2026-04-22 19:14 51.32793 -0.13645 1938 ft 147 kts 263°
2026-04-22 19:14 51.32694 -0.15155 1924 ft 147 kts 262°
2026-04-22 19:14 51.32589 -0.16804 1915 ft 147 kts 263°
2026-04-22 19:14 51.32489 -0.18435 1914 ft 148 kts 263°
2026-04-22 19:15 51.32398 -0.20023 1920 ft 148 kts 263°
2026-04-22 19:15 51.32305 -0.21644 1921 ft 148 kts 262°
2026-04-22 19:15 51.32216 -0.23277 1925 ft 148 kts 263°
2026-04-22 19:15 51.32122 -0.24886 1936 ft 148 kts 263°
2026-04-22 19:16 51.32018 -0.26501 1941 ft 148 kts 263°
2026-04-22 19:16 51.31917 -0.28135 1933 ft 149 kts 263°
2026-04-22 19:16 51.31818 -0.29679 1934 ft 149 kts 263°
2026-04-22 19:16 51.31709 -0.31341 1939 ft 148 kts 263°
2026-04-22 19:17 51.31602 -0.32975 1946 ft 147 kts 261°
2026-04-22 19:17 51.31553 -0.34480 1888 ft 143 kts 262°
2026-04-22 19:17 51.31521 -0.36077 1714 ft 140 kts 262°
2026-04-22 19:17 51.31489 -0.37620 1531 ft 138 kts 262°
2026-04-22 19:18 51.31460 -0.39005 1363 ft 136 kts 262°
2026-04-22 19:18 51.31437 -0.40544 1187 ft 131 kts 267°
2026-04-22 19:18 51.31494 -0.41929 1036 ft 122 kts 276°
2026-04-22 19:18 51.31478 -0.43236 971 ft 118 kts 270°
2026-04-22 19:19 51.31517 -0.44514 966 ft 109 kts 279°
2026-04-22 19:19 51.31722 -0.45577 828 ft 93 kts 301°
2026-04-22 19:19 51.32124 -0.46250 644 ft 79 kts 344°
2026-04-22 19:19 51.32613 -0.46347 602 ft 68 kts 24°
2026-04-22 19:20 51.32975 -0.45941 640 ft 62 kts 47°
2026-04-22 19:20 51.33233 -0.45419 638 ft 60 kts 58°
2026-04-22 19:20 51.33389 -0.44862 537 ft 53 kts 87°
2026-04-22 19:20 51.33345 -0.44338 400 ft 43 kts 99°
2026-04-22 19:21 51.33303 -0.43951 370 ft 29 kts 82°
2026-04-22 19:21 51.33371 -0.43726 335 ft 16 kts 134°
2026-04-22 19:21 51.33311 -0.43616 181 ft 9 kts 135°
2026-04-22 19:21 51.33304 -0.43608 162 ft 0 kts 135°
2026-04-22 19:22 51.33305 -0.43608 162 ft 0 kts 135°